User: anonymous   Login
Location: ????????
(55.0097°N, 38.5678°E)
Time: 18:43:26
(UTC+00:00)
Language:

CZ-2C R/B - Orbit

View from above orbital plane
View from above orbital plane
View from above satellite
View from above satellite

Ground track
Ground track

The orbit data is extracted from the following two-line orbital elements,

1 36089U 09061B   24172.86760087  .00000542  00000-0  14282-3 0  9991
2 36089  98.3588 138.7176 0081019 104.3318 256.6888 14.51028405772695
Epoch (UTC): 20 June 2024 20:49:20
Eccentricity: 0.0081019
inclination: 98.3588°
perigee height: 665 km
apogee height: 780 km
right ascension of ascending node: 138.7176°
argument of perigee: 104.3318°
revolutions per day: 14.51028405
mean anomaly at epoch: 256.6888°
orbit number at epoch: 77269

The dashed part of the orbit path shows where the satellite is in the earth's shadow,  

DLR